Location: *
(38.4303°S, 157.0822°W)
Time: 14:28:24
(UTC+00:00)

NOSS 3-2 (C) - Pass Details

Date: 21 May 2024
Orbit: 712 x 1499 km, 63.4° (Epoch: 28 April)

Event Time Altitude Azimuth Distance (km) Brightness Sun altitude
Exits shadow 15:28:40 44° 309° (NW) 1,107 3.5 -23.3°
Drops below altitude 10° 15:33:06 10° 7° (N) 2,265 5.6 -22.4°
Sets 15:35:24 0° 13° (NNE) 3,137 6.5 -22.0°
